KC77 VQPR-VNKT

Flight info

Callsign KC77
Flight time N/A
Altitude 34000
Route VQPR SUBSU TUMLI VNKT RATAN VNKT
Aircraft A319/M-V/N

Departure

Time 2026-05-01 14:55
Airport Paro International Airport (VQPR)

Arrival

Time N/A
Airport Tribhuvan International Airport (VNKT)
Time Latitude Longitude Altitude Speed Heading
2026-05-01 14:21 27.40693 89.42065 7348 ft 0 kts 242°
2026-05-01 14:34 27.40699 89.42079 7348 ft 5 kts 242°
2026-05-01 14:35 27.40721 89.42114 7349 ft 5 kts 206°
2026-05-01 14:35 27.40750 89.42110 7349 ft 0 kts 148°
2026-05-01 14:42 27.40693 89.42065 7348 ft 0 kts 242°
2026-05-01 14:46 27.40702 89.42085 7348 ft 5 kts 242°
2026-05-01 14:47 27.40728 89.42113 7349 ft 5 kts 185°
2026-05-01 14:47 27.40748 89.42107 7349 ft 0 kts 148°
2026-05-01 14:48 27.40678 89.42129 7348 ft 11 kts 175°
2026-05-01 14:48 27.40608 89.42151 7348 ft 10 kts 126°
2026-05-01 14:48 27.40466 89.42277 7342 ft 16 kts 149°
2026-05-01 14:49 27.40236 89.42422 7334 ft 21 kts 150°
2026-05-01 14:49 27.39954 89.42605 7324 ft 25 kts 149°
2026-05-01 14:50 27.39744 89.42740 7318 ft 26 kts 150°
2026-05-01 14:50 27.39432 89.42945 7308 ft 0 kts 130°
2026-05-01 14:53 27.39428 89.42953 7307 ft 2 kts 115°
2026-05-01 14:53 27.39425 89.42981 7307 ft 4 kts 81°
2026-05-01 14:53 27.39443 89.43014 7307 ft 5 kts 20°
2026-05-01 14:53 27.39482 89.43008 7308 ft 5 kts 335°
2026-05-01 14:54 27.39485 89.43007 7308 ft 0 kts 333°
2026-05-01 14:54 27.39486 89.43006 7308 ft 0 kts 330°
2026-05-01 14:54 27.39491 89.43002 7309 ft 8 kts 332°
2026-05-01 14:55 27.39797 89.42812 7316 ft 92 kts 330°
2026-05-01 14:55 27.40573 89.42315 7346 ft 162 kts 330°
2026-05-01 14:55 27.41636 89.41641 8001 ft 176 kts 330°
2026-05-01 14:55 27.42603 89.40917 8970 ft 175 kts 309°
2026-05-01 14:56 27.42948 89.39649 9865 ft 175 kts 262°
2026-05-01 14:56 27.42466 89.38457 10755 ft 174 kts 227°
2026-05-01 14:56 27.41622 89.37501 11653 ft 174 kts 224°
2026-05-01 14:56 27.40791 89.36568 12522 ft 172 kts 225°
2026-05-01 14:57 27.39980 89.35637 13390 ft 167 kts 225°
2026-05-01 14:57 27.38467 89.33875 14583 ft 157 kts 226°
2026-05-01 14:57 27.37700 89.32973 14952 ft 159 kts 226°
2026-05-01 14:58 27.36919 89.32053 15219 ft 169 kts 226°
2026-05-01 14:58 27.36078 89.31058 15491 ft 180 kts 226°
2026-05-01 14:58 27.35199 89.30019 15762 ft 192 kts 226°
2026-05-01 14:58 27.34240 89.28885 16035 ft 206 kts 226°
2026-05-01 14:59 27.33225 89.27683 16342 ft 221 kts 226°
2026-05-01 14:59 27.32141 89.26400 16652 ft 236 kts 226°
2026-05-01 14:59 27.30975 89.25020 16994 ft 250 kts 226°
2026-05-01 14:59 27.29757 89.23579 17524 ft 256 kts 226°
2026-05-01 15:00 27.27306 89.20680 18718 ft 260 kts 226°
2026-05-01 15:00 27.26057 89.19204 19291 ft 263 kts 226°
2026-05-01 15:00 27.24790 89.17705 19853 ft 265 kts 226°
2026-05-01 15:01 27.23519 89.16202 20397 ft 267 kts 226°
2026-05-01 15:01 27.22243 89.14693 20915 ft 270 kts 226°
2026-05-01 15:01 27.20944 89.13158 21421 ft 273 kts 226°
2026-05-01 15:01 27.20514 89.12651 21584 ft 274 kts 226°
2026-05-01 15:02 27.19630 89.11607 21915 ft 276 kts 226°